Content
SEND FEEDBACK

Daily
Averages
Monthly
Summary
United States of America

BUENA VISTA, VIRGINIA


Home > North America > United States > Virginia
Elevation: 84 feet     Latitude: 37 44N     Longitude: 079 21W

WEATHER
 
SELECT A DAY
Number of Records: 211,421;   Date Range: 1/1/95 - 7/26/14
 
SHARE

PRINT THIS DATA

[ ← Previous Day ]
WEATHER ALMANAC - JANUARY 12, 2014
[ Next Day → ]
[ °C ]   °F
Weather ElementAverageHighLow
Temperature43.9 °F53.1 °F (2:54 pm)30.9 °F (10:54 pm)
Dewpoint27.5 °F30 °F (1:54 am)25 °F (4:54 am)
Humidity54.3 %82 % (10:54 pm)37 % (3:54 pm)
Barometer29.98 in30.15 in (9:54 pm)29.70 in (1:54 am)
Wind Speed7 mph16.1 mph (3:54 am)
Wind Gust27.6 mph (3:54 am)
Weather ElementAverage
Visibility10 mi
Wind DirectionSSW (191.3 °)

Weather ElementTotal
Precipitation---
Heating Degree Days23 (Base 65)
Averaged from 23 records on January 12, 2014
WEATHER CONDITIONS BREAKOUT
WIND DIRECTION BREAKOUT
WEATHER BY HOUR - JANUARY 12, 2014
[ °C ]   °F
Local TimeTemperatureDewpointHumidityBarometerVisibilityWind DirectionWind SpeedGust SpeedPrecipitationEventsConditions
1:54 AM45.0 °F30.0 °F56 %29.70 in10.0 miWest (280°)13.8 mph25.3 mphClear
2:54 AM44.1 °F28.9 °F55 %29.73 in10.0 miWNW (290°)10.4 mph18.4 mphPartly Cloudy
3:54 AM44.1 °F27.0 °F51 %29.75 in10.0 miWest (280°)16.1 mph27.6 mphClear
4:54 AM42.1 °F25.0 °F51 %29.79 in10.0 miWest (270°)10.4 mph18.4 mphClear
5:54 AM42.1 °F27.0 °F55 %29.83 in10.0 miWest (280°)9.2 mph19.6 mphClear
6:54 AM39.0 °F26.1 °F60 %29.86 in10.0 miWest (260°)6.9 mphClear
7:54 AM39.9 °F26.1 °F58 %29.90 in10.0 miWest (280°)9.2 mphClear
8:54 AM44.1 °F27.0 °F51 %29.94 in10.0 miVariable3.5 mphClear
9:54 AM46.9 °F28.0 °F48 %29.98 in10.0 miVariable6.9 mphClear
10:54 AM48.9 °F28.9 °F46 %29.99 in10.0 miWSW (240°)9.2 mph16.1 mphClear
11:54 AM50.0 °F28.9 °F44 %29.99 in10.0 miWest (270°)10.4 mph24.2 mphClear
12:54 PM51.1 °F28.9 °F43 %30.01 in10.0 miWest (280°)12.7 mph23.0 mphClear
1:54 PM52.0 °F28.0 °F40 %30.02 in10.0 miWest (280°)12.7 mph20.7 mphClear
2:54 PM53.1 °F28.0 °F38 %30.03 in10.0 miWest (260°)6.9 mphClear
3:54 PM53.1 °F27.0 °F37 %30.05 in10.0 miWest (270°)5.8 mphClear
4:54 PM51.1 °F26.1 °F38 %30.07 in10.0 miCalmClear
5:54 PM46.0 °F28.0 °F50 %30.10 in10.0 miSW (230°)3.5 mphClear
6:54 PM42.1 °F28.0 °F58 %30.12 in10.0 miSSW (210°)3.5 mphClear
7:54 PM37.0 °F28.0 °F70 %30.12 in10.0 miCalmClear
8:54 PM37.0 °F28.0 °F70 %30.13 in10.0 miSSW (200°)3.5 mphClear
9:54 PM33.1 °F27.0 °F78 %30.15 in10.0 miCalmClear
10:54 PM30.9 °F26.1 °F82 %30.14 in10.0 miCalmClear
11:54 PM36.0 °F27.0 °F70 %30.14 in10.0 miSW (220°)5.8 mphClear
Hourly data recorded from KLYH, located miles away from Buena Vista, Virginia







STORIES FROM OUR PARTNERS